| time (UTC) | temp F | wind direction | speed MPH | gust MPH | rain 1hr in | rain 24hr in | rain mn in | humidity % | barometer mb |
| 20260507193052 | 65 | 10 | 1.0 | 5.0 | 0.00 | 0.00 | 0.00 | 30 | 1014.7 |
| 20260507192543 | 64 | 235 | 1.0 | 4.0 | 0.00 | 0.00 | 0.00 | 28 | 1014.5 |
| 20260507192043 | 63 | 1 | 1.0 | 3.0 | 0.00 | 0.00 | 0.00 | 30 | 1014.7 |
| 20260507191556 | 63 | 23 | 0.0 | 3.0 | 0.00 | 0.00 | 0.00 | 32 | 1014.9 |
| 20260507191043 | 64 | 353 | 1.0 | 4.0 | 0.00 | 0.00 | 0.00 | 27 | 1015.0 |
| 20260507190544 | 64 | 108 | 1.0 | 4.0 | 0.00 | 0.00 | 0.00 | 27 | 1015.1 |
| 20260507190055 | 65 | 18 | 1.0 | 3.0 | 0.00 | 0.00 | 0.00 | 27 | 1015.1 |
| 20260507185543 | 65 | 19 | 1.0 | 3.0 | 0.00 | 0.00 | 0.00 | 31 | 1015.2 |
| 20260507185041 | 64 | 247 | 1.0 | 5.0 | 0.00 | 0.00 | 0.00 | 33 | 1015.2 |
| 20260507184549 | 63 | 319 | 1.0 | 5.0 | 0.00 | 0.00 | 0.00 | 27 | 1015.2 |
| 20260507184044 | 63 | 283 | 1.0 | 6.0 | 0.00 | 0.00 | 0.00 | 26 | 1015.1 |
| 20260507183540 | 63 | 263 | 2.0 | 7.0 | 0.00 | 0.00 | 0.00 | 27 | 1015.0 |
| 20260507183055 | 62 | 26 | 3.0 | 7.0 | 0.00 | 0.00 | 0.00 | 27 | 1015.0 |
| 20260507182543 | 62 | 288 | 1.0 | 6.0 | 0.00 | 0.00 | 0.00 | 34 | 1015.1 |
| 20260507182044 | 62 | 291 | 2.0 | 6.0 | 0.00 | 0.00 | 0.00 | 28 | 1015.1 |
| 20260507181548 | 62 | 275 | 1.0 | 6.0 | 0.00 | 0.00 | 0.00 | 33 | 1015.1 |
| 20260507181043 | 62 | 23 | 1.0 | 6.0 | 0.00 | 0.00 | 0.00 | 28 | 1015.3 |
| 20260507180547 | 63 | 20 | 2.0 | 4.0 | 0.00 | 0.00 | 0.00 | 29 | 1015.3 |
| 20260507180057 | 63 | 41 | 1.0 | 4.0 | 0.00 | 0.00 | 0.00 | 33 | 1015.3 |
| 20260507175544 | 62 | 277 | 1.0 | 4.0 | 0.00 | 0.00 | 0.00 | 34 | 1015.4 |
| 20260507175042 | 61 | 27 | 1.0 | 4.0 | 0.00 | 0.00 | 0.00 | 31 | 1015.5 |
| 20260507174554 | 61 | 288 | 0.0 | 6.0 | 0.00 | 0.00 | 0.00 | 29 | 1015.4 |
| 20260507174043 | 61 | 173 | 1.0 | 6.0 | 0.00 | 0.00 | 0.00 | 30 | 1015.4 |
| 20260507173544 | 61 | 272 | 1.0 | 7.0 | 0.00 | 0.00 | 0.00 | 29 | 1015.7 |
| 20260507173101 | 61 | 304 | 2.0 | 7.0 | 0.00 | 0.00 | 0.00 | 32 | 1015.8 |
| 20260507172548 | 61 | 241 | 1.0 | 5.0 | 0.00 | 0.00 | 0.00 | 33 | 1015.7 |
| 20260507172045 | 60 | 117 | 2.0 | 5.0 | 0.00 | 0.00 | 0.00 | 30 | 1015.7 |
| 20260507171555 | 60 | 183 | 1.0 | 5.0 | 0.00 | 0.00 | 0.00 | 30 | 1015.8 |
| 20260507171043 | 60 | 58 | 1.0 | 5.0 | 0.00 | 0.00 | 0.00 | 38 | 1015.8 |
| 20260507170543 | 61 | 253 | 2.0 | 5.0 | 0.00 | 0.00 | 0.00 | 27 | 1016.0 |
| 20260507170055 | 61 | 0 | 1.0 | 7.0 | 0.00 | 0.00 | 0.00 | 35 | 1016.0 |
| 20260507165543 | 60 | 284 | 2.0 | 7.0 | 0.00 | 0.00 | 0.00 | 32 | 1016.1 |
| 20260507165043 | 60 | 252 | 2.0 | 4.0 | 0.00 | 0.00 | 0.00 | 36 | 1016.2 |
| 20260507164551 | 61 | 265 | 1.0 | 4.0 | 0.00 | 0.00 | 0.00 | 34 | 1016.3 |
| 20260507164043 | 60 | 40 | 1.0 | 5.0 | 0.00 | 0.00 | 0.00 | 35 | 1016.3 |
| 20260507163543 | 60 | 286 | 1.0 | 5.0 | 0.00 | 0.00 | 0.00 | 35 | 1016.5 |
| 20260507163058 | 60 | 349 | 1.0 | 5.0 | 0.00 | 0.00 | 0.00 | 32 | 1016.4 |
| 20260507162545 | 60 | 248 | 2.0 | 5.0 | 0.00 | 0.00 | 0.00 | 30 | 1016.3 |
| 20260507162043 | 60 | 323 | 1.0 | 3.0 | 0.00 | 0.00 | 0.00 | 35 | 1016.2 |
| 20260507161555 | 60 | 14 | 1.0 | 4.0 | 0.00 | 0.00 | 0.00 | 34 | 1016.3 |
| 20260507161043 | 59 | 260 | 1.0 | 4.0 | 0.00 | 0.00 | 0.00 | 32 | 1016.3 |
| 20260507160544 | 59 | 8 | 1.0 | 4.0 | 0.00 | 0.00 | 0.00 | 32 | 1016.5 |
| 20260507160053 | 59 | 0 | 1.0 | 4.0 | 0.00 | 0.00 | 0.00 | 34 | 1016.6 |
| 20260507155543 | 59 | 10 | 1.0 | 4.0 | 0.00 | 0.00 | 0.00 | 38 | 1016.6 |
| 20260507155046 | 59 | 278 | 2.0 | 4.0 | 0.00 | 0.00 | 0.00 | 33 | 1016.6 |
| 20260507154554 | 59 | 289 | 1.0 | 4.0 | 0.00 | 0.00 | 0.00 | 35 | 1016.6 |
| 20260507154044 | 59 | 65 | 1.0 | 4.0 | 0.00 | 0.00 | 0.00 | 35 | 1016.7 |
| 20260507153543 | 59 | 31 | 1.0 | 4.0 | 0.00 | 0.00 | 0.00 | 36 | 1016.6 |
| 20260507153102 | 59 | 223 | 1.0 | 4.0 | 0.00 | 0.00 | 0.00 | 36 | 1016.7 |
| 20260507152543 | 59 | 0 | 1.0 | 4.0 | 0.00 | 0.00 | 0.00 | 35 | 1016.7 |
| 20260507152044 | 59 | 40 | 2.0 | 4.0 | 0.00 | 0.00 | 0.00 | 34 | 1016.7 |
| 20260507151548 | 58 | 279 | 1.0 | 4.0 | 0.00 | 0.00 | 0.00 | 37 | 1016.6 |
| 20260507151043 | 58 | 7 | 1.0 | 4.0 | 0.00 | 0.00 | 0.00 | 35 | 1016.7 |
| 20260507150544 | 57 | 10 | 1.0 | 4.0 | 0.00 | 0.00 | 0.00 | 36 | 1016.8 |
| 20260507150105 | 57 | 28 | 1.0 | 3.0 | 0.00 | 0.00 | 0.00 | 36 | 1016.7 |
| 20260507145545 | 57 | 249 | 0.0 | 3.0 | 0.00 | 0.00 | 0.00 | 35 | 1016.7 |
| 20260507145043 | 57 | 332 | 0.0 | 4.0 | 0.00 | 0.00 | 0.00 | 37 | 1016.6 |
| 20260507144552 | 56 | 285 | 1.0 | 4.0 | 0.00 | 0.00 | 0.00 | 34 | 1016.7 |
| 20260507144043 | 56 | 258 | 1.0 | 4.0 | 0.00 | 0.00 | 0.00 | 34 | 1016.7 |
| 20260507143543 | 56 | 17 | 0.0 | 3.0 | 0.00 | 0.00 | 0.00 | 40 | 1016.6 |
| 20260507143103 | 56 | 281 | 0.0 | 4.0 | 0.00 | 0.00 | 0.00 | 38 | 1016.6 |
| 20260507142543 | 55 | 0 | 1.0 | 4.0 | 0.00 | 0.00 | 0.00 | 40 | 1016.7 |
| 20260507142043 | 55 | 339 | 1.0 | 4.0 | 0.00 | 0.00 | 0.00 | 39 | 1016.6 |
| 20260507141551 | 55 | 243 | 0.0 | 4.0 | 0.00 | 0.00 | 0.00 | 38 | 1016.6 |
| 20260507141043 | 55 | 269 | 0.0 | 3.0 | 0.00 | 0.00 | 0.00 | 40 | 1016.6 |
| 20260507140546 | 54 | 20 | 0.0 | 3.0 | 0.00 | 0.00 | 0.00 | 42 | 1016.6 |
| 20260507140056 | 53 | 0 | 0.0 | 3.0 | 0.00 | 0.00 | 0.00 | 46 | 1016.6 |
| 20260507135548 | 52 | 0 | 0.0 | 3.0 | 0.00 | 0.00 | 0.00 | 56 | 1016.6 |
| 20260507135043 | 51 | 0 | 0.0 | 3.0 | 0.00 | 0.00 | 0.00 | 59 | 1016.6 |
| 20260507134550 | 50 | 217 | 1.0 | 3.0 | 0.00 | 0.00 | 0.00 | 58 | 1016.6 |
| 20260507134042 | 48 | 0 | 0.0 | 2.0 | 0.00 | 0.00 | 0.00 | 65 | 1016.6 |
| 20260507133544 | 47 | 0 | 0.0 | 2.0 | 0.00 | 0.00 | 0.00 | 69 | 1016.7 |
| 20260507133057 | 46 | 0 | 0.0 | 2.0 | 0.00 | 0.00 | 0.00 | 79 | 1016.7 |
| 20260507132543 | 44 | 0 | 0.0 | 2.0 | 0.00 | 0.00 | 0.00 | 85 | 1016.7 |
| 20260507132046 | 44 | 0 | 0.0 | 1.0 | 0.00 | 0.00 | 0.00 | 90 | 1016.6 |
| 20260507131554 | 43 | 250 | 0.0 | 1.0 | 0.00 | 0.00 | 0.00 | 94 | 1016.7 |
| 20260507131041 | 43 | 0 | 0.0 | 1.0 | 0.00 | 0.00 | 0.00 | 95 | 1016.7 |
| 20260507130543 | 42 | 0 | 0.0 | 1.0 | 0.00 | 0.00 | 0.00 | 97 | 1016.6 |
| 20260507125542 | 41 | 0 | 0.0 | 0.0 | 0.00 | 0.00 | 0.00 | 97 | 1016.6 |
| 20260507125043 | 41 | 0 | 0.0 | 1.0 | 0.00 | 0.00 | 0.00 | 97 | 1016.6 |
| 20260507124600 | 40 | 0 | 0.0 | 1.0 | 0.00 | 0.00 | 0.00 | 98 | 1016.6 |
| 20260507124043 | 40 | 0 | 0.0 | 2.0 | 0.00 | 0.00 | 0.00 | 98 | 1016.6 |
| 20260507123543 | 40 | 250 | 0.0 | 2.0 | 0.00 | 0.00 | 0.00 | 98 | 1016.7 |
| 20260507123049 | 39 | 250 | 1.0 | 2.0 | 0.00 | 0.00 | 0.00 | 98 | 1016.7 |
| 20260507122542 | 39 | 0 | 0.0 | 1.0 | 0.00 | 0.00 | 0.00 | 98 | 1016.6 |
| 20260507122044 | 38 | 0 | 0.0 | 1.0 | 0.00 | 0.00 | 0.00 | 98 | 1016.4 |
| 20260507121601 | 38 | 0 | 0.0 | 1.0 | 0.00 | 0.00 | 0.00 | 98 | 1016.4 |
| 20260507121040 | 37 | 0 | 0.0 | 0.0 | 0.00 | 0.00 | 0.00 | 98 | 1016.4 |
| 20260507120540 | 37 | 0 | 0.0 | 0.0 | 0.00 | 0.00 | 0.00 | 98 | 1016.2 |
| 20260507120056 | 37 | 0 | 0.0 | 0.0 | 0.00 | 0.00 | 0.00 | 98 | 1016.3 |
| 20260507115544 | 36 | 0 | 0.0 | 0.0 | 0.00 | 0.00 | 0.00 | 98 | 1016.3 |
| 20260507115039 | 36 | 0 | 0.0 | 0.0 | 0.00 | 0.00 | 0.00 | 98 | 1016.3 |
| 20260507114551 | 35 | 0 | 0.0 | 0.0 | 0.00 | 0.00 | 0.00 | 98 | 1016.3 |
| 20260507114042 | 35 | 0 | 0.0 | 0.0 | 0.00 | 0.00 | 0.00 | 97 | 1016.2 |
| 20260507113542 | 35 | 0 | 0.0 | 0.0 | 0.00 | 0.00 | 0.00 | 97 | 1016.2 |
| 20260507113052 | 34 | 0 | 0.0 | 0.0 | 0.00 | 0.00 | 0.00 | 97 | 1016.2 |
| 20260507112544 | 34 | 0 | 0.0 | 0.0 | 0.00 | 0.00 | 0.00 | 96 | 1016.2 |
| 20260507112047 | 34 | 0 | 0.0 | 0.0 | 0.00 | 0.00 | 0.00 | 96 | 1016.0 |
| 20260507111551 | 34 | 0 | 0.0 | 0.0 | 0.00 | 0.00 | 0.00 | 96 | 1015.9 |
| 20260507111045 | 35 | 0 | 0.0 | 0.0 | 0.00 | 0.00 | 0.00 | 96 | 1015.9 |
| 20260507110543 | 35 | 0 | 0.0 | 0.0 | 0.00 | 0.00 | 0.00 | 96 | 1016.0 |
| 20260507110059 | 35 | 0 | 0.0 | 0.0 | 0.00 | 0.00 | 0.00 | 96 | 1016.1 |
| 20260507105542 | 35 | 0 | 0.0 | 0.0 | 0.00 | 0.00 | 0.00 | 96 | 1016.1 |
| 20260507105043 | 35 | 0 | 0.0 | 0.0 | 0.00 | 0.00 | 0.00 | 96 | 1015.9 |
| 20260507104600 | 35 | 0 | 0.0 | 0.0 | 0.00 | 0.00 | 0.00 | 96 | 1015.9 |
| 20260507104046 | 35 | 0 | 0.0 | 0.0 | 0.00 | 0.00 | 0.00 | 96 | 1015.8 |
| 20260507103544 | 35 | 0 | 0.0 | 0.0 | 0.00 | 0.00 | 0.00 | 96 | 1016.1 |
| 20260507103115 | 35 | 0 | 0.0 | 0.0 | 0.00 | 0.00 | 0.00 | 96 | 1016.1 |
| 20260507102540 | 35 | 0 | 0.0 | 0.0 | 0.00 | 0.00 | 0.00 | 96 | 1016.0 |
| 20260507102040 | 35 | 0 | 0.0 | 0.0 | 0.00 | 0.00 | 0.00 | 96 | 1016.1 |
| 20260507101553 | 35 | 0 | 0.0 | 0.0 | 0.00 | 0.00 | 0.00 | 96 | 1016.1 |
| 20260507101039 | 35 | 0 | 0.0 | 0.0 | 0.00 | 0.00 | 0.00 | 96 | 1016.0 |
| 20260507100539 | 36 | 0 | 0.0 | 0.0 | 0.00 | 0.00 | 0.00 | 96 | 1016.1 |
| 20260507100106 | 36 | 0 | 0.0 | 0.0 | 0.00 | 0.00 | 0.00 | 96 | 1016.0 |
| 20260507095545 | 36 | 0 | 0.0 | 0.0 | 0.00 | 0.00 | 0.00 | 96 | 1016.0 |
| 20260507095043 | 36 | 0 | 0.0 | 0.0 | 0.00 | 0.00 | 0.00 | 96 | 1015.9 |
| 20260507094550 | 36 | 0 | 0.0 | 0.0 | 0.00 | 0.00 | 0.00 | 96 | 1015.9 |
| 20260507094045 | 36 | 0 | 0.0 | 0.0 | 0.00 | 0.00 | 0.00 | 96 | 1016.0 |
| 20260507093545 | 36 | 0 | 0.0 | 0.0 | 0.00 | 0.00 | 0.00 | 96 | 1015.9 |
| 20260507093056 | 36 | 0 | 0.0 | 0.0 | 0.00 | 0.00 | 0.00 | 96 | 1015.8 |
| 20260507092545 | 36 | 0 | 0.0 | 0.0 | 0.00 | 0.00 | 0.00 | 96 | 1015.8 |
| 20260507092045 | 36 | 0 | 0.0 | 0.0 | 0.00 | 0.00 | 0.00 | 96 | 1015.7 |
| 20260507091550 | 36 | 0 | 0.0 | 0.0 | 0.00 | 0.00 | 0.00 | 96 | 1015.9 |
| 20260507091046 | 36 | 0 | 0.0 | 0.0 | 0.00 | 0.00 | 0.00 | 96 | 1015.8 |
| 20260507090545 | 36 | 0 | 0.0 | 0.0 | 0.00 | 0.00 | 0.00 | 96 | 1015.9 |
| 20260507090055 | 37 | 0 | 0.0 | 0.0 | 0.00 | 0.00 | 0.00 | 96 | 1015.8 |
| 20260507085545 | 37 | 0 | 0.0 | 0.0 | 0.00 | 0.01 | 0.00 | 96 | 1015.9 |
| 20260507085045 | 37 | 0 | 0.0 | 0.0 | 0.00 | 0.01 | 0.00 | 96 | 1015.9 |
| 20260507084558 | 37 | 0 | 0.0 | 0.0 | 0.00 | 0.01 | 0.00 | 96 | 1016.0 |
| 20260507084042 | 37 | 0 | 0.0 | 0.0 | 0.00 | 0.01 | 0.00 | 96 | 1015.9 |
| 20260507083545 | 37 | 0 | 0.0 | 0.0 | 0.00 | 0.01 | 0.00 | 96 | 1015.9 |
| 20260507083052 | 37 | 0 | 0.0 | 0.0 | 0.00 | 0.01 | 0.00 | 96 | 1015.8 |
| 20260507082544 | 37 | 0 | 0.0 | 0.0 | 0.00 | 0.01 | 0.00 | 96 | 1015.7 |
| 20260507082044 | 37 | 0 | 0.0 | 0.0 | 0.00 | 0.01 | 0.00 | 96 | 1015.8 |
| 20260507081555 | 37 | 0 | 0.0 | 0.0 | 0.00 | 0.01 | 0.00 | 96 | 1015.6 |
| 20260507081044 | 37 | 0 | 0.0 | 0.0 | 0.00 | 0.01 | 0.00 | 96 | 1015.6 |
| 20260507080547 | 37 | 0 | 0.0 | 0.0 | 0.00 | 0.01 | 0.00 | 96 | 1015.7 |
| 20260507080054 | 37 | 0 | 0.0 | 0.0 | 0.00 | 0.01 | 0.00 | 96 | 1015.7 |
| 20260507075544 | 38 | 0 | 0.0 | 0.0 | 0.00 | 0.02 | 0.00 | 96 | 1015.6 |
| 20260507075044 | 38 | 0 | 0.0 | 0.0 | 0.00 | 0.02 | 0.00 | 95 | 1015.6 |
| 20260507074552 | 38 | 0 | 0.0 | 0.0 | 0.00 | 0.02 | 0.00 | 95 | 1015.6 |
| 20260507074044 | 38 | 0 | 0.0 | 0.0 | 0.00 | 0.02 | 0.00 | 95 | 1015.6 |
| 20260507073544 | 38 | 0 | 0.0 | 0.0 | 0.00 | 0.02 | 0.00 | 95 | 1015.6 |
| 20260507073052 | 38 | 0 | 0.0 | 0.0 | 0.00 | 0.02 | 0.00 | 95 | 1015.5 |
| 20260507072544 | 38 | 0 | 0.0 | 0.0 | 0.00 | 0.02 | 0.00 | 95 | 1015.6 |
| 20260507072043 | 39 | 0 | 0.0 | 0.0 | 0.00 | 0.02 | 0.00 | 95 | 1015.6 |
| 20260507071550 | 39 | 0 | 0.0 | 0.0 | 0.00 | 0.02 | 0.00 | 95 | 1015.6 |
| 20260507071044 | 39 | 0 | 0.0 | 0.0 | 0.00 | 0.02 | 0.00 | 95 | 1015.8 |
| 20260507070545 | 39 | 0 | 0.0 | 0.0 | 0.00 | 0.02 | 0.00 | 95 | 1015.6 |
| 20260507070106 | 39 | 0 | 0.0 | 0.0 | 0.00 | 0.02 | 0.00 | 95 | 1015.6 |
| 20260507065544 | 39 | 0 | 0.0 | 0.0 | 0.00 | 0.08 | 0.00 | 95 | 1015.8 |
| 20260507065044 | 39 | 0 | 0.0 | 0.0 | 0.00 | 0.08 | 0.00 | 95 | 1015.8 |
| 20260507064556 | 39 | 0 | 0.0 | 0.0 | 0.00 | 0.08 | 0.00 | 95 | 1015.9 |
| 20260507064047 | 39 | 0 | 0.0 | 0.0 | 0.00 | 0.08 | 0.00 | 95 | 1016.0 |
| 20260507063545 | 39 | 0 | 0.0 | 0.0 | 0.00 | 0.08 | 0.00 | 95 | 1016.1 |
| 20260507063052 | 39 | 0 | 0.0 | 0.0 | 0.00 | 0.08 | 0.00 | 94 | 1016.0 |
| 20260507062548 | 39 | 0 | 0.0 | 0.0 | 0.00 | 0.08 | 0.00 | 94 | 1016.0 |
| 20260507062044 | 40 | 0 | 0.0 | 0.0 | 0.00 | 0.08 | 0.00 | 94 | 1015.9 |
| 20260507061552 | 40 | 0 | 0.0 | 0.0 | 0.00 | 0.08 | 0.00 | 94 | 1015.9 |
| 20260507061044 | 40 | 0 | 0.0 | 0.0 | 0.00 | 0.08 | 0.00 | 94 | 1016.0 |
| 20260507060544 | 40 | 0 | 0.0 | 0.0 | 0.00 | 0.08 | 0.00 | 94 | 1016.0 |
| 20260507060058 | 40 | 0 | 0.0 | 0.0 | 0.00 | 0.08 | 0.00 | 94 | 1015.9 |
| 20260507055544 | 40 | 0 | 0.0 | 0.0 | 0.00 | 0.15 | 0.00 | 94 | 1015.9 |
| 20260507055045 | 40 | 0 | 0.0 | 0.0 | 0.00 | 0.15 | 0.00 | 94 | 1016.0 |
| 20260507054609 | 41 | 0 | 0.0 | 0.0 | 0.00 | 0.15 | 0.00 | 94 | 1016.0 |
| 20260507054044 | 41 | 0 | 0.0 | 0.0 | 0.00 | 0.15 | 0.00 | 94 | 1015.9 |
| 20260507053547 | 41 | 0 | 0.0 | 0.0 | 0.00 | 0.15 | 0.00 | 94 | 1016.0 |
| 20260507053059 | 41 | 0 | 0.0 | 0.0 | 0.00 | 0.15 | 0.00 | 94 | 1016.0 |
| 20260507052543 | 41 | 0 | 0.0 | 0.0 | 0.00 | 0.15 | 0.00 | 94 | 1015.9 |
| 20260507052045 | 41 | 0 | 0.0 | 0.0 | 0.00 | 0.15 | 0.00 | 94 | 1016.0 |
| 20260507051555 | 41 | 0 | 0.0 | 0.0 | 0.00 | 0.15 | 0.00 | 94 | 1015.8 |
| 20260507051045 | 42 | 0 | 0.0 | 0.0 | 0.00 | 0.15 | 0.00 | 93 | 1015.7 |
| 20260507050544 | 42 | 0 | 0.0 | 0.0 | 0.00 | 0.15 | 0.00 | 93 | 1015.6 |
| 20260507050054 | 42 | 0 | 0.0 | 0.0 | 0.00 | 0.15 | 0.00 | 93 | 1015.5 |
| 20260507045543 | 42 | 0 | 0.0 | 0.0 | 0.00 | 0.27 | 0.00 | 93 | 1015.5 |
| 20260507045043 | 42 | 0 | 0.0 | 0.0 | 0.00 | 0.27 | 0.00 | 93 | 1015.5 |
| 20260507044556 | 42 | 0 | 0.0 | 0.0 | 0.00 | 0.27 | 0.00 | 93 | 1015.5 |
| 20260507044044 | 42 | 0 | 0.0 | 0.0 | 0.00 | 0.27 | 0.00 | 93 | 1015.5 |
| 20260507043544 | 43 | 0 | 0.0 | 0.0 | 0.00 | 0.27 | 0.00 | 93 | 1015.6 |
| 20260507043047 | 43 | 0 | 0.0 | 0.0 | 0.00 | 0.27 | 0.00 | 92 | 1015.6 |
| 20260507042543 | 43 | 0 | 0.0 | 0.0 | 0.00 | 0.27 | 0.00 | 92 | 1015.7 |
| 20260507042042 | 43 | 0 | 0.0 | 0.0 | 0.00 | 0.27 | 0.00 | 92 | 1015.6 |
| 20260507041600 | 43 | 0 | 0.0 | 0.0 | 0.00 | 0.27 | 0.00 | 92 | 1015.7 |
| 20260507041045 | 43 | 0 | 0.0 | 0.0 | 0.00 | 0.27 | 0.00 | 91 | 1015.6 |
| 20260507040543 | 43 | 0 | 0.0 | 0.0 | 0.00 | 0.27 | 0.00 | 91 | 1015.6 |
| 20260507040054 | 43 | 0 | 0.0 | 0.0 | 0.00 | 0.27 | 0.00 | 91 | 1015.8 |
| 20260507035542 | 43 | 0 | 0.0 | 0.0 | 0.00 | 0.52 | 0.27 | 90 | 1015.6 |
| 20260507035043 | 44 | 0 | 0.0 | 0.0 | 0.00 | 0.52 | 0.27 | 90 | 1015.7 |
| 20260507034551 | 44 | 0 | 0.0 | 0.0 | 0.00 | 0.52 | 0.27 | 90 | 1015.8 |
| 20260507034044 | 44 | 0 | 0.0 | 0.0 | 0.00 | 0.52 | 0.27 | 89 | 1015.8 |
| 20260507033542 | 44 | 0 | 0.0 | 0.0 | 0.00 | 0.52 | 0.27 | 89 | 1015.7 |
| 20260507033053 | 44 | 0 | 0.0 | 0.0 | 0.00 | 0.52 | 0.27 | 88 | 1015.7 |
| 20260507032543 | 44 | 0 | 0.0 | 0.0 | 0.00 | 0.52 | 0.27 | 88 | 1015.7 |
| 20260507032044 | 45 | 0 | 0.0 | 0.0 | 0.00 | 0.52 | 0.27 | 87 | 1015.6 |
| 20260507031548 | 45 | 0 | 0.0 | 0.0 | 0.00 | 0.52 | 0.27 | 87 | 1015.6 |
| 20260507031045 | 45 | 0 | 0.0 | 0.0 | 0.00 | 0.52 | 0.27 | 86 | 1015.6 |
| 20260507030544 | 45 | 0 | 0.0 | 0.0 | 0.00 | 0.52 | 0.27 | 85 | 1015.6 |
| 20260507030046 | 45 | 0 | 0.0 | 0.0 | 0.00 | 0.52 | 0.27 | 85 | 1015.6 |
| 20260507025544 | 46 | 0 | 0.0 | 0.0 | 0.00 | 0.98 | 0.27 | 84 | 1015.5 |
| 20260507025045 | 46 | 0 | 0.0 | 0.0 | 0.00 | 0.98 | 0.27 | 83 | 1015.3 |
| 20260507024554 | 46 | 0 | 0.0 | 0.0 | 0.00 | 0.98 | 0.27 | 82 | 1015.3 |
| 20260507024044 | 46 | 0 | 0.0 | 0.0 | 0.00 | 0.98 | 0.27 | 81 | 1015.2 |
| 20260507023545 | 46 | 0 | 0.0 | 0.0 | 0.00 | 0.98 | 0.27 | 81 | 1015.1 |
| 20260507023051 | 47 | 0 | 0.0 | 0.0 | 0.00 | 0.98 | 0.27 | 79 | 1015.2 |
| 20260507022544 | 47 | 0 | 0.0 | 1.0 | 0.00 | 0.98 | 0.27 | 78 | 1015.0 |
| 20260507022043 | 47 | 0 | 0.0 | 1.0 | 0.00 | 0.98 | 0.27 | 76 | 1015.0 |
| 20260507021604 | 47 | 0 | 0.0 | 0.0 | 0.00 | 0.98 | 0.27 | 75 | 1015.0 |
| 20260507021044 | 48 | 0 | 0.0 | 0.0 | 0.00 | 0.98 | 0.27 | 73 | 1015.0 |
| 20260507020542 | 48 | 0 | 0.0 | 0.0 | 0.00 | 0.98 | 0.27 | 72 | 1015.0 |
| 20260507020108 | 48 | 0 | 0.0 | 0.0 | 0.00 | 0.98 | 0.27 | 72 | 1015.0 |
| 20260507015545 | 49 | 0 | 0.0 | 0.0 | 0.00 | 1.16 | 0.27 | 71 | 1015.0 |
| 20260507015045 | 49 | 0 | 0.0 | 0.0 | 0.00 | 1.16 | 0.27 | 70 | 1014.9 |
| 20260507014619 | 49 | 0 | 0.0 | 0.0 | 0.00 | 1.16 | 0.27 | 68 | 1014.9 |
| 20260507014046 | 49 | 0 | 0.0 | 0.0 | 0.00 | 1.16 | 0.27 | 67 | 1014.7 |
| 20260507013546 | 49 | 0 | 0.0 | 0.0 | 0.00 | 1.16 | 0.27 | 67 | 1014.9 |
| 20260507013101 | 50 | 0 | 0.0 | 0.0 | 0.00 | 1.16 | 0.27 | 65 | 1014.8 |
| 20260507012544 | 50 | 0 | 0.0 | 0.0 | 0.00 | 1.16 | 0.27 | 64 | 1014.7 |
| 20260507012045 | 50 | 0 | 0.0 | 0.0 | 0.00 | 1.16 | 0.27 | 63 | 1014.7 |
| 20260507011558 | 51 | 0 | 0.0 | 0.0 | 0.00 | 1.16 | 0.27 | 63 | 1014.7 |
| 20260507011045 | 51 | 0 | 0.0 | 1.0 | 0.00 | 1.16 | 0.27 | 62 | 1014.7 |
| 20260507010544 | 51 | 0 | 0.0 | 1.0 | 0.00 | 1.16 | 0.27 | 61 | 1014.7 |
| 20260507010052 | 52 | 0 | 0.0 | 1.0 | 0.00 | 1.16 | 0.27 | 61 | 1014.7 |
| 20260507005544 | 52 | 0 | 0.0 | 1.0 | 0.00 | 1.37 | 0.27 | 61 | 1014.7 |
| 20260507005047 | 52 | 0 | 0.0 | 1.0 | 0.00 | 1.37 | 0.27 | 59 | 1014.4 |
| 20260507004552 | 53 | 0 | 0.0 | 1.0 | 0.00 | 1.37 | 0.27 | 59 | 1014.4 |
| 20260507004044 | 53 | 0 | 0.0 | 1.0 | 0.00 | 1.37 | 0.27 | 60 | 1014.3 |
| 20260507003544 | 53 | 0 | 0.0 | 1.0 | 0.00 | 1.37 | 0.27 | 59 | 1014.3 |
| 20260507003050 | 54 | 339 | 0.0 | 1.0 | 0.00 | 1.37 | 0.27 | 59 | 1014.3 |
| 20260507002544 | 54 | 0 | 0.0 | 1.0 | 0.00 | 1.37 | 0.27 | 58 | 1014.3 |
| 20260507002044 | 54 | 0 | 0.0 | 1.0 | 0.00 | 1.37 | 0.27 | 58 | 1014.3 |
| 20260507001602 | 55 | 0 | 0.0 | 1.0 | 0.00 | 1.37 | 0.27 | 57 | 1014.3 |
| 20260507001043 | 55 | 0 | 0.0 | 1.0 | 0.00 | 1.37 | 0.27 | 57 | 1014.3 |
| 20260507000545 | 55 | 0 | 0.0 | 1.0 | 0.00 | 1.37 | 0.27 | 56 | 1014.3 |
| 20260507000122 | 55 | 360 | 0.0 | 1.0 | 0.00 | 1.37 | 0.27 | 56 | 1014.2 |
| 20260506235543 | 56 | 0 | 0.0 | 2.0 | 0.00 | 1.51 | 0.27 | 56 | 1014.2 |
| 20260506235044 | 56 | 0 | 0.0 | 3.0 | 0.00 | 1.51 | 0.27 | 54 | 1014.1 |
| 20260506234613 | 57 | 6 | 0.0 | 3.0 | 0.00 | 1.51 | 0.27 | 52 | 1014.1 |
| 20260506234043 | 57 | 310 | 0.0 | 3.0 | 0.00 | 1.51 | 0.27 | 52 | 1014.0 |
| 20260506233544 | 58 | 1 | 0.0 | 4.0 | 0.00 | 1.51 | 0.27 | 49 | 1013.9 |
| 20260506233052 | 58 | 0 | 1.0 | 4.0 | 0.00 | 1.51 | 0.27 | 50 | 1014.0 |
| 20260506232545 | 59 | 0 | 0.0 | 4.0 | 0.00 | 1.51 | 0.27 | 50 | 1014.0 |
| 20260506232044 | 58 | 266 | 1.0 | 5.0 | 0.00 | 1.51 | 0.27 | 47 | 1014.0 |
| 20260506231552 | 58 | 241 | 1.0 | 5.0 | 0.00 | 1.51 | 0.27 | 46 | 1014.0 |
| 20260506231041 | 58 | 122 | 1.0 | 4.0 | 0.00 | 1.51 | 0.27 | 47 | 1014.1 |
| 20260506230541 | 59 | 360 | 0.0 | 3.0 | 0.00 | 1.51 | 0.27 | 45 | 1014.1 |
| 20260506230100 | 59 | 290 | 1.0 | 4.0 | 0.00 | 1.51 | 0.27 | 42 | 1014.0 |
| 20260506225546 | 60 | 302 | 1.0 | 4.0 | 0.00 | 1.79 | 0.27 | 40 | 1014.1 |
| 20260506225044 | 61 | 257 | 1.0 | 4.0 | 0.00 | 1.79 | 0.27 | 41 | 1014.0 |
| 20260506224551 | 61 | 0 | 0.0 | 4.0 | 0.00 | 1.79 | 0.27 | 43 | 1014.0 |
| 20260506224044 | 62 | 0 | 1.0 | 4.0 | 0.00 | 1.79 | 0.27 | 42 | 1014.0 |
| 20260506223543 | 62 | 235 | 1.0 | 4.0 | 0.00 | 1.79 | 0.27 | 42 | 1013.9 |
| 20260506223100 | 62 | 283 | 1.0 | 4.0 | 0.00 | 1.79 | 0.27 | 40 | 1014.0 |
| 20260506222547 | 62 | 12 | 0.0 | 4.0 | 0.00 | 1.79 | 0.27 | 44 | 1014.1 |
| 20260506222045 | 62 | 269 | 1.0 | 4.0 | 0.00 | 1.79 | 0.27 | 45 | 1014.2 |
| 20260506221559 | 62 | 352 | 0.0 | 4.0 | 0.00 | 1.79 | 0.27 | 44 | 1014.1 |
| 20260506221044 | 62 | 27 | 1.0 | 6.0 | 0.00 | 1.79 | 0.27 | 45 | 1014.0 |
| 20260506220544 | 61 | 216 | 1.0 | 6.0 | 0.00 | 1.79 | 0.27 | 43 | 1014.1 |
| 20260506220052 | 61 | 333 | 1.0 | 5.0 | 0.00 | 1.79 | 0.27 | 47 | 1014.0 |
| 20260506215546 | 61 | 0 | 1.0 | 5.0 | 0.00 | 1.90 | 0.27 | 45 | 1013.9 |
| 20260506215045 | 60 | 0 | 1.0 | 4.0 | 0.00 | 1.90 | 0.27 | 46 | 1013.8 |
| 20260506214549 | 60 | 265 | 1.0 | 5.0 | 0.00 | 1.90 | 0.27 | 46 | 1014.0 |
| 20260506214043 | 60 | 242 | 1.0 | 5.0 | 0.00 | 1.90 | 0.27 | 45 | 1014.0 |
| 20260506213548 | 61 | 0 | 1.0 | 6.0 | 0.00 | 1.90 | 0.27 | 45 | 1014.1 |
| 20260506213056 | 61 | 297 | 1.0 | 6.0 | 0.00 | 1.90 | 0.27 | 47 | 1014.0 |
| 20260506212541 | 60 | 0 | 1.0 | 7.0 | 0.00 | 1.90 | 0.27 | 45 | 1014.1 |
| 20260506212044 | 60 | 53 | 2.0 | 7.0 | 0.00 | 1.90 | 0.27 | 45 | 1014.0 |
| 20260506211554 | 60 | 357 | 1.0 | 4.0 | 0.00 | 1.90 | 0.27 | 44 | 1013.9 |
| 20260506211041 | 60 | 0 | 1.0 | 6.0 | 0.00 | 1.90 | 0.27 | 42 | 1014.0 |
| 20260506210546 | 61 | 49 | 1.0 | 6.0 | 0.00 | 1.90 | 0.27 | 43 | 1014.0 |
| 20260506210051 | 61 | 258 | 1.0 | 4.0 | 0.00 | 1.90 | 0.27 | 43 | 1014.0 |
| 20260506205544 | 61 | 0 | 0.0 | 3.0 | 0.00 | 1.92 | 0.27 | 43 | 1014.0 |
| 20260506205043 | 61 | 0 | 0.0 | 3.0 | 0.00 | 1.92 | 0.27 | 43 | 1013.9 |
| 20260506204551 | 62 | 297 | 1.0 | 4.0 | 0.00 | 1.92 | 0.27 | 39 | 1014.0 |
| 20260506204041 | 62 | 272 | 1.0 | 6.0 | 0.00 | 1.92 | 0.27 | 38 | 1014.0 |
| 20260506203543 | 62 | 326 | 1.0 | 6.0 | 0.00 | 1.92 | 0.27 | 40 | 1013.9 |
| 20260506203052 | 62 | 260 | 1.0 | 6.0 | 0.00 | 1.92 | 0.27 | 39 | 1013.9 |
| 20260506202541 | 62 | 270 | 1.0 | 4.0 | 0.00 | 1.92 | 0.27 | 37 | 1013.9 |
| 20260506202046 | 62 | 0 | 1.0 | 4.0 | 0.00 | 1.92 | 0.27 | 38 | 1013.8 |
| 20260506201550 | 62 | 45 | 1.0 | 4.0 | 0.00 | 1.92 | 0.27 | 40 | 1013.8 |
| 20260506201045 | 62 | 60 | 0.0 | 4.0 | 0.00 | 1.92 | 0.27 | 42 | 1013.9 |
| 20260506200545 | 61 | 283 | 0.0 | 4.0 | 0.00 | 1.92 | 0.27 | 44 | 1013.8 |
| 20260506200047 | 62 | 37 | 1.0 | 5.0 | 0.00 | 1.92 | 0.27 | 46 | 1013.9 |
| 20260506195543 | 62 | 275 | 1.0 | 5.0 | 0.00 | 1.92 | 0.27 | 42 | 1014.0 |
| 20260506195045 | 62 | 7 | 1.0 | 4.0 | 0.00 | 1.92 | 0.27 | 42 | 1014.1 |
| 20260506194549 | 62 | 20 | 1.0 | 4.0 | 0.00 | 1.92 | 0.27 | 39 | 1013.9 |
| 20260506194044 | 62 | 247 | 0.0 | 4.0 | 0.00 | 1.92 | 0.27 | 40 | 1013.9 |
| 20260506193542 | 62 | 11 | 2.0 | 5.0 | 0.00 | 1.92 | 0.27 | 42 | 1014.0 |